Regional Weather Roundup
Issued by NWS Goodland, KS

Home | Current Version | Previous Version | Graphics & Text | Print | Product List | Glossary On
Versions: 1 2 3 4 5 6 7 8 9 10 11 12 13 14 15 16 17 18 19 20 21 22 23 24 25 26 27 28 29 30 31 32 33 34 35 36 37 38 39 40 41 42 43 44 45 46 47 48 49 50
000
ASUS43 KGLD 111959
RWRGLD

GOODLAND FORECAST AREA HOURLY WEATHER ROUNDUP
NATIONAL WEATHER SERVICE GOODLAND KS
100 PM MST THU FEB 11 2016

...OFFICIAL OBSERVATIONS...

CITY           SKY/WX    TMP DP  RH WIND       PRES   REMARKS
GOODLAND KS    SUNNY     60  29  30 W16       30.08F
HILL CITY KS   SUNNY     42  33  70 S9        30.12F
IMPERIAL NEB   SUNNY     51  30  44 NW12      30.06F
MCCOOK NEB     SUNNY     42  33  70 VRB5      30.06F
AKRON CO       CLOUDY    51  28  41 NW10      30.11F
BURLINGTON CO  CLOUDY    56  32  40 W7        30.10F
LIMON CO       CLOUDY    44  28  53 N5        30.15F
$$

...UNOFFICIAL OBSERVATIONS...

CITY           SKY/WX    TMP DP  RH WIND       PRES   REMARKS
COLBY KS       SUNNY     48  37  66 SW8       30.08F
GOVE KS          N/A     54  32  43 MISG        N/A
LENORA KS        N/A     37  32  82 MISG        N/A
NORTON KS      MOSUNNY   36  27  69 SE9       30.09F
SHARON SPRINGS   N/A     63  33  32 W12G20      N/A
TRENTON NEB      N/A     46  32  58 MISG        N/A
KIT CARSON CO    N/A     62  27  26 MISG        N/A
YUMA CO          N/A     52  35  52 NW7         N/A
$$



USA.gov is the U.S. government's official web portal to all federal, state and local government web resources and services.